Simultaneous Nadir Overpasses (SNOs) Predictions

Prediction of SNOs between AQUA and GOES-15 Satellite Orbit:

Table of predicted SNOs for the next 14.0 days since TLE Epoch: 3/10/2017
Index Date Time (AQUA) AQUA Lat,Lon GOES-15 Lat,Lon Distance(km) Time Diff (sec)
1 03/12/2017 10:26:03 -0.46,-132.65 0.01,-134.76 240.76 80
2 03/12/2017 22:47:28 -0.66,-137.84 -0.02,-134.76 350.29 80
3 03/14/2017 22:35:19 -0.06,-134.89 -0.02,-134.68 24.34 80
4 03/16/2017 22:23:10 0.55,-131.94 -0.01,-134.59 301.11 80
5 03/17/2017 10:44:26 0.55,-137.10 0.02,-134.55 289.85 80
6 03/19/2017 10:32:17 -0.06,-134.15 0.01,-134.45 34.83 80
7 03/21/2017 10:20:08 -0.67,-131.20 0.01,-134.35 358.89 80
8 03/21/2017 22:41:33 -0.43,-136.40 -0.02,-134.34 232.67 80
9 03/23/2017 22:29:23 0.13,-133.43 -0.02,-134.24 90.75 80




NCC Satellite Simultaneous Nadir Overpasses (SNOs) Prediction Service
